{"data":{"norad_id":57733,"epoch":"2026-05-25T03:51:23.082912Z","epoch_age_seconds":64223,"freshness":"FRESH","line1":"1 57733U 23131B   26145.16068383  .00001052  00000+0  48903-4 0  9993","line2":"2 57733  43.0057 108.0794 0002022 286.4721  73.5908 15.26742476151532","mean_motion":15.26742476,"eccentricity":0.0002022,"inclination_deg":43.0057,"raan_deg":108.0794,"arg_perigee_deg":286.4721,"mean_anomaly_deg":73.5908,"bstar":4.8903e-5,"rev_number":15153,"period_min":94.318460554837,"perigee_km":484.17025141651,"apogee_km":486.94592971113,"semimajor_km":6863.6950905638,"source":"CELESTRAK","updated_at":"2026-05-25T13:38:18.375604Z"}}